Regional Weather Roundup
Issued by NWS

Home | Current Version | Previous Version | Text Only | Print | Product List | Glossary On
Versions: 1 2 3 4 5 6 7 8 9 10 11 12 13 14 15 16 17 18 19 20 21 22 23 24 25 26 27
000
ASUS45 KPSR 231510
RWRAZ

ARIZONA HOURLY REGIONAL WEATHER ROUNDUP
NATIONAL WEATHER SERVICE PHOENIX AZ
800 AM MST WED AUG 23 2017

NOTE: FAIR INDICATES FEW OR NO CLOUDS BELOW 12,000 FEET WITH NO
SIGNIFICANT WEATHER AND/OR OBSTRUCTIONS TO VISIBILITY.

AZZ001>003-036-231600-
NORTHWEST ARIZONA

CITY           SKY/WX    TMP DP  RH WIND       PRES   REMARKS
BULLHEAD CITY  SUNNY     88  48  25 CALM      29.88R
KINGMAN        MOSUNNY   78  47  33 NW3       30.09R
$$

AZZ004>008-015-016-018-231600-
NORTH CENTRAL ARIZONA

CITY           SKY/WX    TMP DP  RH WIND       PRES   REMARKS
GRAND CANYON   SUNNY     66  51  58 CALM      30.35R
WILLIAMS       MOSUNNY   66  50  55 CALM      30.35S
PRESCOTT       MOSUNNY   73  46  38 N3        30.22S
FLAGSTAFF      SUNNY     65  48  54 CALM      30.37S
PAYSON           N/A     75  48  38 CALM      30.23S
PAGE           MOSUNNY   76  47  35 CALM      30.17R
$$

AZZ009>014-017-231600-
NORTHEAST ARIZONA

CITY           SKY/WX    TMP DP  RH WIND       PRES   REMARKS
WINSLOW        MOSUNNY   73  46  38 E3        30.23R
SAINT JOHNS    PTSUNNY   70  49  47 E3        30.27R
WINDOW ROCK    SUNNY     63  50  62 CALM      30.37R
SHOW LOW       MOSUNNY   73  50  43 CALM      30.33R
$$

AZZ540-542>544-546-548-231600-
GREATER PHOENIX AREA

CITY           SKY/WX    TMP DP  RH WIND       PRES   REMARKS
PHOENIX        MOSUNNY   90  59  35 SE7       29.92R
BUCKEYE        MOSUNNY   91  55  29 CALM      29.92R
GLENDALE       MOSUNNY   91  57  31 W3        29.93R
LUKE AFB       SUNNY     89  57  34 NE5       29.91R
DEER VALLEY    SUNNY     90  55  30 S8        29.93R
SCOTTSDALE     SUNNY     90  57  32 VRB3      29.96R
MESA-FALCON    MOSUNNY   91  61  35 E9        29.95R
MESA-GATEWAY   MOSUNNY   86  63  45 SE9       29.96R
CHANDLER       PTSUNNY   86  64  48 NE7       29.93R
$$

AZZ539-553-231600-
SOUTHWEST MARICOPA COUNTY AND PINAL COUNTY

CITY           SKY/WX    TMP DP  RH WIND       PRES   REMARKS
CASA GRANDE    MOSUNNY   87  60  40 S9        29.96R
GILA BEND      PTSUNNY   89  58  34 CALM      29.90R
$$

AZZ503-504-507>509-231600-
SOUTHEAST ARIZONA

CITY           SKY/WX    TMP DP  RH WIND       PRES   REMARKS
TUCSON         NOT AVBL
DAVIS-MONTHAN  SUNNY     83  61  46 CALM      30.06R
RYAN FIELD     SUNNY     81  63  54 NE3       30.06R
NOGALES        MOSUNNY   77  62  59 CALM      30.16R
SIERRA VISTA   MOSUNNY   80  58  46 CALM      30.21R
DOUGLAS        MOSUNNY   73  63  70 CALM      30.16S
SAFFORD          N/A     83  56  39 CALM      30.07R
$$

AZZ532-231600-
SOUTHWEST ARIZONA

CITY           SKY/WX    TMP DP  RH WIND       PRES   REMARKS
YUMA           MOSUNNY   90  70  51 S8        29.85R
$$

CAZ041-043-047-048-061-525>527-560>570-231600-
SOUTHERN CALIFORNIA

CITY           SKY/WX    TMP DP  RH WIND       PRES   REMARKS
DOWNTOWN L.A.  CLOUDY    70  62  76 CALM      29.97S
L.A. AIRPORT   CLOUDY    68  63  84 W7        29.98R
SAN DIEGO      CLOUDY    69  63  81 W5        30.00R
BURBANK        CLOUDY    65  60  84 S5        29.99R
ONTARIO        MOSUNNY   66  61  84 SW3       29.99S HAZE
RIVERSIDE      PTSUNNY   66  64  93 VRB3      29.99S
PALM SPRINGS   SUNNY     86  57  37 CALM      29.88R
EL CENTRO NAS  SUNNY     87  72  60 SE5       29.84R
IMPERIAL       SUNNY     89  76  65 SE10      29.82R HX 100
BLYTHE         MOSUNNY   91  69  48 S9        29.86R
NEEDLES        SUNNY     91  47  21 NE5       29.89R
$$

NVZ020-UTZ003-231600-
SOUTHERN NEVADA-UTAH

CITY           SKY/WX    TMP DP  RH WIND       PRES   REMARKS
LAS VEGAS      MOSUNNY   86  48  26 CALM      29.99R
SALT LAKE CITY PTSUNNY   74  56  53 SE9       30.17S
$$

NMZ009-TXZ055-231600-
NEW MEXICO-WEST TEXAS

CITY           SKY/WX    TMP DP  RH WIND       PRES   REMARKS
ALBUQUERQUE    MOSUNNY   70  59  68 VRB3      30.31R
EL PASO        PTSUNNY   79  64  60 NE6       30.17R
$$


........................KEY........................
SKY/WX - SKY CONDITION/WEATHER
TMP    - TEMPERATURE IN FAHRENHEIT
DP     - DEW POINT IN FAHRENHEIT
RH     - RELATIVE HUMIDITY IN PERCENT
WIND   - DIRECTION AND SPEED IN MILES PER HOUR (MPH)
VRB    - VARIABLE WIND DIRECTION
PRES   - MEAN SEA LEVEL PRESSURE IN INCHES OF MERCURY
         F - FALLING PRESSURE   R - RISING PRESSURE
         S - STEADY PRESSURE
VSB    - VISIBILITY IN MILES
HX     - HEAT INDEX IN FAHRENHEIT
WCI    - WIND CHILL INDEX IN FAHRENHEIT
TC     - TEMPERATURE IN CELSIUS WHICH IS ALSO KNOWN AS
         TEMPERATURE IN CENTIGRADE
AFB    - AIR FORCE BASE
         LUKE AFB IS LUKE AIR FORCE BASE
         DAVIS-MONTHAN IS DAVIS-MONTHAN AIR FORCE BASE
NAS    - NAVAL AIR STATION
         EL CENTRO NAS IS EL CENTRO NAVAL AIR STATION
N/A    - NOT AVAILABLE





USA.gov is the U.S. government's official web portal to all federal, state and local government web resources and services.